DW1482 Weather Reports


Display with metric or nautical units.
time (UTC)temp
F
wind
direction
speed
MPH
gust
MPH
rain 1hr
in
rain 24hr
in
rain mn
in
humidity
%
barometer
mb
20260508170010 71 32 4.0 11.0 0.00 0.00 0.00 27 1006.0
20260508164516 70 350 3.0 10.0 0.00 0.00 0.00 24 1006.0
20260508163038 69 9 4.0 11.0 0.00 0.00 0.00 24 1006.1
20260508161504 68 11 2.0 12.0 0.00 0.00 0.00 27 1006.2
20260508160012 68 10 2.0 9.0 0.00 0.00 0.00 34 1006.2
20260508154515 65 300 2.0 9.0 0.00 0.00 0.00 38 1006.2
20260508153027 62 289 3.0 7.0 0.00 0.00 0.00 41 1006.4
20260508151518 59 300 3.0 8.0 0.00 0.00 0.00 42 1006.5
20260508150010 58 325 0.0 6.0 0.00 0.00 0.00 44 1006.7
20260508144518 57 340 1.0 7.0 0.00 0.00 0.00 46 1006.8
20260508143022 54 311 1.0 9.0 0.00 0.00 0.00 49 1006.7
20260508141527 51 281 0.0 6.0 0.00 0.00 0.00 51 1006.7
20260508140014 50 276 0.0 7.0 0.00 0.00 0.00 51 1007.0
20260508134524 48 248 0.0 4.0 0.00 0.00 0.00 54 1006.8
20260508133026 47 245 1.0 5.0 0.00 0.00 0.00 54 1006.8
20260508131528 46 254 2.0 5.0 0.00 0.00 0.00 56 1007.1
20260508130016 44 244 0.0 5.0 0.00 0.00 0.00 58 1007.3
20260508124521 42 257 1.0 3.0 0.00 0.00 0.00 60 1007.0
20260508123032 40 257 1.0 7.0 0.00 0.00 0.00 62 1007.1
20260508121530 39 257 0.0 4.0 0.00 0.00 0.00 65 1007.1
20260508120017 38 317 0.0 0.0 0.00 0.00 0.00 67 1007.2
20260508114521 38 317 0.0 0.0 0.00 0.00 0.00 68 1007.0
20260508113025 38 317 0.0 0.0 0.00 0.00 0.00 69 1007.1
20260508111527 39 317 0.0 0.0 0.00 0.00 0.00 68 1007.0
20260508110022 40 317 0.0 0.0 0.00 0.00 0.00 69 1006.9
20260508104523 41 317 0.0 0.0 0.00 0.00 0.00 62 1007.1
20260508103030 41 317 0.0 3.0 0.00 0.00 0.00 61 1007.3
20260508101524 41 332 0.0 2.0 0.00 0.00 0.00 59 1007.3
20260508100005 41 332 0.0 0.0 0.00 0.00 0.00 59 1007.3
20260508094503 41 332 0.0 0.0 0.00 0.00 0.00 60 1007.4
20260508093027 41 332 0.0 0.0 0.00 0.00 0.00 60 1007.3
20260508091522 41 332 0.0 0.0 0.00 0.00 0.00 59 1007.5
20260508090009 41 332 0.0 0.0 0.00 0.00 0.00 58 1007.5
20260508084504 40 333 0.0 0.0 0.00 0.00 0.00 60 1007.5
20260508083017 40 333 0.0 0.0 0.00 0.00 0.00 56 1007.4
20260508081518 40 333 0.0 0.0 0.00 0.00 0.00 55 1007.6
20260508080005 40 333 0.0 0.0 0.00 0.00 0.00 57 1007.8
20260508074513 40 333 0.0 1.0 0.00 0.00 0.00 57 1007.9
20260508073013 40 333 0.0 0.0 0.00 0.00 0.00 57 1007.9
20260508071522 41 333 0.0 0.0 0.00 0.00 0.00 56 1007.9
20260508070025 41 333 0.0 0.0 0.00 0.00 0.00 54 1007.8
20260508064512 42 333 0.0 0.0 0.00 0.00 0.00 53 1007.9
20260508063014 43 333 0.0 0.0 0.00 0.00 0.00 51 1007.9
20260508061521 44 333 0.0 0.0 0.00 0.00 0.00 51 1007.9
20260508060025 46 333 0.0 0.0 0.00 0.00 0.00 49 1007.8
20260508054508 46 333 0.0 3.0 0.00 0.00 0.00 48 1007.9
20260508053014 46 332 1.0 3.0 0.00 0.00 0.00 47 1008.1
20260508051519 48 331 0.0 0.0 0.00 0.00 0.00 45 1008.1
20260508050025 49 331 0.0 0.0 0.00 0.00 0.00 44 1008.1
20260508044513 50 331 0.0 0.0 0.00 0.00 0.00 42 1008.1
20260508043016 49 331 1.0 4.0 0.00 0.00 0.00 40 1008.2
20260508041531 49 343 0.0 0.0 0.00 0.00 0.00 41 1008.2
20260508040028 49 343 0.0 0.0 0.00 0.00 0.00 42 1008.3
20260508034519 50 343 0.0 0.0 0.00 0.00 0.00 42 1008.4
20260508033025 50 343 0.0 0.0 0.00 0.00 0.00 42 1008.5
20260508031524 50 343 0.0 0.0 0.00 0.00 0.00 38 1008.5
20260508030008 50 343 0.0 0.0 0.00 0.00 0.00 38 1008.5
20260508024515 51 343 0.0 0.0 0.00 0.00 0.00 35 1008.5
20260508023033 53 343 0.0 0.0 0.00 0.00 0.00 33 1008.3
20260508021521 55 343 0.0 1.0 0.00 0.00 0.00 30 1008.2
20260508020008 57 343 0.0 0.0 0.00 0.00 0.00 28 1008.2
20260508014514 58 343 0.0 2.0 0.00 0.00 0.00 26 1008.2
20260508013022 59 343 0.0 2.0 0.00 0.00 0.00 26 1008.2
20260508011526 60 343 0.0 4.0 0.00 0.00 0.00 25 1008.3
20260508010012 61 304 2.0 9.0 0.00 0.00 0.00 24 1008.3
20260508004521 62 11 1.0 5.0 0.00 0.00 0.00 22 1008.2
20260508003022 62 332 1.0 8.0 0.00 0.00 0.00 21 1008.2
20260508001531 62 32 1.0 9.0 0.00 0.00 0.00 19 1008.2
20260508000031 63 344 2.0 9.0 0.00 0.00 0.00 20 1008.2
20260507234519 63 58 1.0 9.0 0.00 0.00 0.00 21 1008.2
20260507233024 64 275 5.0 12.0 0.00 0.00 0.00 21 1008.2
20260507231525 64 326 1.0 8.0 0.00 0.00 0.00 22 1008.3
20260507230025 64 279 5.0 12.0 0.00 0.00 0.00 21 1008.1
20260507224526 63 234 4.0 9.0 0.00 0.00 0.00 21 1008.2
20260507223026 64 311 4.0 14.0 0.00 0.00 0.00 23 1008.3
20260507221534 65 327 3.0 9.0 0.00 0.00 0.00 22 1008.5
20260507220032 64 15 3.0 9.0 0.00 0.00 0.00 22 1008.6
20260507214522 65 342 2.0 11.0 0.00 0.00 0.00 23 1008.7
20260507213010 64 30 2.0 14.0 0.00 0.00 0.00 22 1008.7
20260507211504 64 298 2.0 10.0 0.00 0.00 0.00 20 1008.8
20260507210017 64 97 2.0 9.0 0.00 0.00 0.00 26 1008.8
20260507204505 64 330 1.0 16.0 0.00 0.00 0.00 27 1008.9
20260507203013 63 273 4.0 12.0 0.00 0.00 0.00 25 1009.2
20260507201513 63 22 2.0 8.0 0.00 0.00 0.00 23 1009.3
20260507200015 63 292 3.0 13.0 0.00 0.00 0.00 26 1009.5
20260507194503 61 22 1.0 11.0 0.00 0.00 0.00 27 1009.6
20260507193010 60 11 1.0 9.0 0.00 0.00 0.00 27 1009.7
20260507191518 62 265 4.0 12.0 0.00 0.00 0.00 26 1009.9
20260507190007 60 22 3.0 11.0 0.00 0.00 0.00 27 1009.9
20260507184503 60 290 2.0 7.0 0.00 0.00 0.00 29 1010.1
20260507183008 59 315 4.0 12.0 0.00 0.00 0.00 29 1010.1
20260507181510 59 13 3.0 10.0 0.00 0.00 0.00 27 1010.2
20260507180011 57 277 2.0 4.0 0.00 0.00 0.00 32 1010.4
20260507174515 58 330 2.0 9.0 0.00 0.00 0.00 35 1010.7
20260507173017 58 346 3.0 7.0 0.00 0.00 0.00 32 1011.0
20260507171512 57 318 1.0 11.0 0.00 0.00 0.00 32 1011.2